When you browse on this site, cookies collect data to enhance your experience and personalize the content and advertising you see.
Visit our Privacy Policy to learn more. By continuing to use the site, you agree to this use of cookies and data.
  • In Czech Republic
  • List of Countries
  • For 7 days
  • Water Temperature
  • Weather Map
  • Weather Widgets
  • user-avatar
    Login

    Hourly Weather Lagny-sur-Marne

    Today, 3 June, Wednesday

    Time Temperature Precipitation Wind Pressure Humidity
    00:00 +17°C° 0 mm 2 mps 749 mmHg 74%
    01:00 +18°C° 0.4 mm 1 mps 748 mmHg 76%
    02:00 +16°C° 0.4 mm 1 mps 747 mmHg 79%
    03:00 +15°C° 0.4 mm 1 mps 747 mmHg 81%
    04:00 +16°C° 1 mm 1 mps 746 mmHg 82%
    05:00 +16°C° 1 mm 1 mps 746 mmHg 82%
    06:00 +17°C° 0 mm 2 mps 746 mmHg 78%
    07:00 +18°C° 0.5 mm 2 mps 745 mmHg 75%
    08:00 +19°C° 0.5 mm 2 mps 745 mmHg 72%
    09:00 +20°C° 0.5 mm 2 mps 745 mmHg 70%
    10:00 +21°C° 0.3 mm 2 mps 744 mmHg 66%
    11:00 +22°C° 0.3 mm 3 mps 744 mmHg 62%
    12:00 +24°C° 0.3 mm 3 mps 744 mmHg 58%
    13:00 +24°C° 0.3 mm 3 mps 743 mmHg 60%
    14:00 +24°C° 0.3 mm 3 mps 742 mmHg 61%
    15:00 +24°C° 0.3 mm 3 mps 742 mmHg 62%
    16:00 +22°C° 0.9 mm 3 mps 742 mmHg 67%
    17:00 +21°C° 0.9 mm 3 mps 741 mmHg 71%
    18:00 +20°C° 0.9 mm 3 mps 741 mmHg 76%
    19:00 +18°C° 0.4 mm 3 mps 741 mmHg 77%
    20:00 +17°C° 0.4 mm 3 mps 741 mmHg 78%
    21:00 +16°C° 0.4 mm 3 mps 741 mmHg 79%
    22:00 +14°C° 0 mm 3 mps 741 mmHg 81%
    23:00 +14°C° 0 mm 3 mps 741 mmHg 83%

    Tomorrow, 4 June, Thursday

    Time Temperature Precipitation Wind Pressure Humidity
    00:00 +13°C° 0 mm 3 mps 741 mmHg 84%
    01:00 +12°C° 0 mm 3 mps 740 mmHg 86%
    02:00 +12°C° 0 mm 3 mps 740 mmHg 88%
    03:00 +11°C° 0 mm 3 mps 740 mmHg 89%
    04:00 +11°C° 0 mm 4 mps 740 mmHg 87%
    05:00 +12°C° 0 mm 4 mps 740 mmHg 85%
    06:00 +12°C° 0 mm 4 mps 740 mmHg 83%
    07:00 +13°C° 0 mm 4 mps 740 mmHg 78%
    08:00 +14°C° 0 mm 4 mps 740 mmHg 73%
    09:00 +17°C° 0 mm 4 mps 740 mmHg 68%
    10:00 +15°C° 0.2 mm 4 mps 740 mmHg 70%
    11:00 +15°C° 0.2 mm 4 mps 740 mmHg 72%
    12:00 +14°C° 0.2 mm 4 mps 740 mmHg 74%
    13:00 +14°C° 0 mm 5 mps 740 mmHg 72%
    14:00 +15°C° 0 mm 5 mps 740 mmHg 69%
    15:00 +15°C° 0 mm 5 mps 740 mmHg 66%
    16:00 +15°C° 0.1 mm 5 mps 740 mmHg 69%
    17:00 +14°C° 0.1 mm 5 mps 740 mmHg 71%
    18:00 +13°C° 0.1 mm 5 mps 741 mmHg 74%
    19:00 +12°C° 0 mm 4 mps 741 mmHg 77%
    20:00 +12°C° 0 mm 3 mps 742 mmHg 79%
    21:00 +11°C° 0 mm 3 mps 742 mmHg 82%
    22:00 +10°C° 0 mm 2 mps 742 mmHg 84%
    23:00 +9°C° 0 mm 2 mps 742 mmHg 86%

    Day after tomorrow, 5 June, Friday

    Time Temperature Precipitation Wind Pressure Humidity
    00:00 +9°C° 0 mm 2 mps 742 mmHg 87%
    01:00 +9°C° 0 mm 2 mps 742 mmHg 87%
    02:00 +9°C° 0 mm 3 mps 742 mmHg 87%
    03:00 +9°C° 0 mm 3 mps 742 mmHg 86%
    04:00 +9°C° 0 mm 3 mps 742 mmHg 83%
    05:00 +10°C° 0 mm 4 mps 742 mmHg 80%
    06:00 +10°C° 0 mm 5 mps 741 mmHg 77%
    07:00 +10°C° 0.8 mm 5 mps 741 mmHg 82%
    08:00 +9°C° 0.8 mm 6 mps 741 mmHg 86%
    09:00 +9°C° 0.8 mm 7 mps 740 mmHg 91%
    10:00 +10°C° 0.5 mm 6 mps 741 mmHg 89%
    11:00 +11°C° 0.5 mm 6 mps 741 mmHg 88%
    12:00 +13°C° 0.5 mm 6 mps 741 mmHg 87%
    13:00 +13°C° 0.1 mm 6 mps 741 mmHg 83%
    14:00 +14°C° 0.1 mm 6 mps 741 mmHg 78%
    15:00 +15°C° 0.1 mm 6 mps 741 mmHg 73%
    16:00 +14°C° 0.4 mm 5 mps 741 mmHg 79%
    17:00 +14°C° 0.4 mm 5 mps 740 mmHg 84%
    18:00 +13°C° 0.4 mm 4 mps 740 mmHg 89%
    19:00 +13°C° 0.3 mm 5 mps 741 mmHg 89%
    20:00 +13°C° 0.3 mm 5 mps 741 mmHg 89%
    21:00 +13°C° 0.3 mm 5 mps 741 mmHg 89%
    22:00 +12°C° 0.2 mm 5 mps 742 mmHg 88%
    23:00 +12°C° 0.2 mm 4 mps 742 mmHg 87%

    6 June, Saturday

    Time Temperature Precipitation Wind Pressure Humidity
    00:00 +11°C° 0.2 mm 4 mps 742 mmHg 86%
    01:00 +11°C° 0 mm 4 mps 742 mmHg 86%
    02:00 +10°C° 0 mm 3 mps 742 mmHg 85%
    03:00 +10°C° 0 mm 3 mps 743 mmHg 84%
    04:00 +10°C° 0 mm 3 mps 743 mmHg 83%
    05:00 +10°C° 0 mm 2 mps 743 mmHg 83%
    06:00 +12°C° 0 mm 2 mps 743 mmHg 82%
    07:00 +12°C° 0 mm 3 mps 743 mmHg 75%
    08:00 +13°C° 0 mm 3 mps 744 mmHg 69%
    09:00 +15°C° 0 mm 4 mps 744 mmHg 63%
    10:00 +17°C° 0.1 mm 4 mps 744 mmHg 58%
    11:00 +16°C° 0.1 mm 5 mps 744 mmHg 53%
    12:00 +17°C° 0.1 mm 6 mps 744 mmHg 49%
    13:00 +17°C° 0.1 mm 5 mps 744 mmHg 52%
    14:00 +17°C° 0.1 mm 5 mps 744 mmHg 56%
    15:00 +16°C° 0.1 mm 5 mps 744 mmHg 59%
    16:00 +15°C° 0.1 mm 5 mps 744 mmHg 59%
    17:00 +15°C° 0.1 mm 5 mps 744 mmHg 59%
    18:00 +14°C° 0.1 mm 5 mps 744 mmHg 59%
    19:00 +12°C° 0 mm 4 mps 745 mmHg 61%
    20:00 +11°C° 0 mm 3 mps 745 mmHg 64%
    21:00 +9°C° 0 mm 3 mps 746 mmHg 66%
    22:00 +9°C° 0 mm 3 mps 746 mmHg 66%
    23:00 +9°C° 0 mm 3 mps 746 mmHg 66%

    7 June, Sunday

    Time Temperature Precipitation Wind Pressure Humidity
    00:00 +9°C° 0 mm 3 mps 746 mmHg 67%
    01:00 +8°C° 0 mm 3 mps 746 mmHg 69%
    02:00 +8°C° 0 mm 3 mps 746 mmHg 71%
    03:00 +7°C° 0 mm 3 mps 746 mmHg 74%
    04:00 +7°C° 0 mm 4 mps 746 mmHg 74%
    05:00 +8°C° 0 mm 4 mps 747 mmHg 73%
    06:00 +8°C° 0 mm 4 mps 747 mmHg 73%
    07:00 +10°C° 0 mm 5 mps 747 mmHg 68%
    08:00 +12°C° 0 mm 5 mps 747 mmHg 62%
    09:00 +14°C° 0 mm 5 mps 748 mmHg 57%
    10:00 +14°C° 0.2 mm 5 mps 748 mmHg 57%
    11:00 +15°C° 0.2 mm 5 mps 748 mmHg 58%
    12:00 +15°C° 0.2 mm 6 mps 748 mmHg 58%
    13:00 +15°C° 0.2 mm 5 mps 748 mmHg 58%
    14:00 +15°C° 0.2 mm 5 mps 748 mmHg 58%
    15:00 +15°C° 0.2 mm 5 mps 748 mmHg 59%
    16:00 +15°C° 0.3 mm 5 mps 748 mmHg 63%
    17:00 +15°C° 0.3 mm 4 mps 748 mmHg 68%
    18:00 +14°C° 0.3 mm 4 mps 748 mmHg 73%
    19:00 +13°C° 0.1 mm 4 mps 748 mmHg 76%
    20:00 +12°C° 0.1 mm 3 mps 748 mmHg 79%
    21:00 +11°C° 0.1 mm 3 mps 748 mmHg 82%
    22:00 +11°C° 0 mm 3 mps 748 mmHg 84%
    23:00 +10°C° 0 mm 3 mps 748 mmHg 85%

    8 June, Monday

    Time Temperature Precipitation Wind Pressure Humidity
    00:00 +10°C° 0 mm 4 mps 748 mmHg 87%
    01:00 +10°C° 0 mm 4 mps 748 mmHg 88%
    02:00 +10°C° 0 mm 4 mps 748 mmHg 89%
    03:00 +10°C° 0 mm 4 mps 748 mmHg 90%
    04:00 +10°C° 0.1 mm 4 mps 748 mmHg 90%
    05:00 +10°C° 0.1 mm 4 mps 748 mmHg 90%
    06:00 +10°C° 0.1 mm 5 mps 748 mmHg 89%
    07:00 +10°C° 0.4 mm 5 mps 748 mmHg 90%
    08:00 +10°C° 0.4 mm 5 mps 749 mmHg 90%
    09:00 +12°C° 0.4 mm 5 mps 749 mmHg 90%
    10:00 +13°C° 0.5 mm 5 mps 749 mmHg 86%
    11:00 +14°C° 0.5 mm 5 mps 749 mmHg 81%
    12:00 +16°C° 0.5 mm 5 mps 749 mmHg 76%
    13:00 +16°C° 0.8 mm 5 mps 749 mmHg 74%
    14:00 +17°C° 0.8 mm 5 mps 749 mmHg 72%
    15:00 +19°C° 0.8 mm 5 mps 749 mmHg 70%
    16:00 +18°C° 0.3 mm 4 mps 749 mmHg 71%
    17:00 +18°C° 0.3 mm 4 mps 749 mmHg 73%
    18:00 +17°C° 0.3 mm 3 mps 749 mmHg 75%
    19:00 +16°C° 0 mm 3 mps 750 mmHg 78%
    20:00 +15°C° 0 mm 2 mps 750 mmHg 81%
    21:00 +13°C° 0 mm 2 mps 750 mmHg 85%
    22:00 +13°C° 0 mm 2 mps 750 mmHg 85%
    23:00 +12°C° 0 mm 2 mps 750 mmHg 86%
    Show more